Weather History for KEHO - March, 2013

Change the Weather History Date:

Thursday, March 21, 2013

  Actual Average Record
Temperature  
Mean Temperature 37 °F -  
Max Temperature 44 °F - - ()
Min Temperature 30 °F - - ()
Degree Days  
Heating Degree Days 28    
Moisture  
Dew Point 12 °F    
Average Humidity 37    
Maximum Humidity 66    
Minimum Humidity 25    
Precipitation  
Precipitation 0.00 in - - ()
Sea Level Pressure  
Sea Level Pressure 29.86 in    
Wind  
Wind Speed 9 mph (NW)    
Max Wind Speed 17 mph    
Max Gust Speed 24 mph    
Visibility 10 miles    
Events      
T = Trace of Precipitation, MM = Missing Value Source: NWS Daily Summary

Daily Weather History Graph

Daily Weather History Graph

Search for Another Location

Airport or City:

Trip Planner

Search our weather history database for the weather conditions in past years. The results will help you decide how hot, cold, wet, or windy it might be!

Date:

Astronomy

Mar. 21, 2013 Rise Set
Actual Time 7:28 AM EDT 7:39 PM EDT
Civil Twilight 7:02 AM EDT 8:04 PM EDT
Nautical Twilight 6:33 AM EDT 8:34 PM EDT
Astronomical Twilight 6:03 AM EDT 9:04 PM EDT
Moon 2:18 PM EDT (3/21) 3:38 AM EDT (3/21)
Length of Visible Light 13h 01m
Length of Day
12h 10m
Waxing Gibbous, 68% of the Moon is Illuminated
Mar 21
Waxing Gibbous
Mar 27
Full
Apr 3
Last Quarter
Apr 10
New
Apr 18
First Quarter

Hourly Weather History & Observations

Time (EDT) Temp. Windchill Dew Point Humidity Pressure Visibility Wind Dir Wind Speed Gust Speed Precip Events Conditions
12:15 AM 44.6 °F 37.2 °F 21.6 °F 40% 29.83 in 10.0 mi WNW 17.3 mph - N/A   Clear
12:35 AM 43.2 °F 35.6 °F 24.6 °F 48% 29.83 in 10.0 mi NW 16.1 mph 21.9 mph N/A   Clear
12:55 AM 42.4 °F 34.7 °F 26.8 °F 54% 29.83 in 10.0 mi WNW 16.1 mph 24.2 mph N/A   Clear
1:15 AM 41.4 °F 34.7 °F 27.9 °F 59% 29.84 in 10.0 mi WNW 11.5 mph 17.3 mph N/A   Clear
1:35 AM 40.1 °F 32.4 °F 28.9 °F 64% 29.84 in 10.0 mi WNW 13.8 mph - N/A   Clear
1:55 AM 38.8 °F 32.6 °F 28.2 °F 66% 29.84 in 10.0 mi NNW 9.2 mph - N/A   Clear
2:15 AM 37.9 °F 34.4 °F 25.3 °F 60% 29.84 in 10.0 mi NW 4.6 mph - N/A   Clear
2:35 AM 36.5 °F 31.8 °F 25.3 °F 64% 29.83 in 10.0 mi WNW 5.8 mph - N/A   Clear
2:55 AM 37.4 °F 30.3 °F 23.0 °F 56% 29.83 in 10.0 mi WNW 10.4 mph - N/A   Clear
3:15 AM 37.4 °F 29.8 °F 20.7 °F 51% 29.82 in 10.0 mi WNW 11.5 mph - N/A   Clear
3:35 AM 37.4 °F 30.8 °F 18.0 °F 45% 29.82 in 10.0 mi WNW 9.2 mph 17.3 mph N/A   Clear
3:55 AM 36.5 °F 29.7 °F 16.7 °F 45% 29.82 in 10.0 mi West 9.2 mph - N/A   Clear
4:15 AM 35.6 °F 30.7 °F 14.5 °F 42% 29.82 in 10.0 mi WNW 5.8 mph - N/A   Clear
4:35 AM 34.5 °F - 14.9 °F 45% 29.82 in 10.0 mi Calm Calm - N/A   Clear
5:15 AM 33.3 °F 28.9 °F 15.6 °F 48% 29.82 in 10.0 mi NW 4.6 mph - N/A   Clear
5:35 AM 33.4 °F 27.3 °F 10.2 °F 38% 29.83 in 10.0 mi NW 6.9 mph - N/A   Clear
5:55 AM 32.4 °F 24.6 °F 8.2 °F 36% 29.83 in 10.0 mi NW 9.2 mph - N/A   Clear
6:15 AM 31.8 °F 26.2 °F 9.0 °F 38% 29.83 in 10.0 mi NW 5.8 mph - N/A   Clear
6:35 AM 31.6 °F - 7.0 °F 35% 29.84 in 10.0 mi Calm Calm - N/A   Clear
6:55 AM 32.0 °F 28.7 °F 6.3 °F 34% 29.84 in 10.0 mi WNW 3.5 mph - N/A   Clear
7:15 AM 31.6 °F - 5.9 °F 34% 29.84 in 10.0 mi Calm Calm - N/A   Clear
7:35 AM 30.9 °F 27.5 °F 7.2 °F 37% 29.84 in 10.0 mi NW 3.5 mph - N/A   Clear
7:55 AM 30.0 °F 24.1 °F 7.7 °F 39% 29.85 in 10.0 mi NNW 5.8 mph - N/A   Clear
8:15 AM 30.9 °F 25.2 °F 7.7 °F 38% 29.86 in 10.0 mi NW 5.8 mph - N/A   Clear
8:35 AM 31.6 °F 25.1 °F 7.3 °F 36% 29.86 in 10.0 mi NNW 6.9 mph - N/A   Clear
8:55 AM 32.0 °F 25.6 °F 7.2 °F 35% 29.87 in 10.0 mi NW 6.9 mph - N/A   Clear
9:15 AM 32.5 °F 24.8 °F 8.4 °F 36% 29.87 in 10.0 mi West 9.2 mph - N/A   Clear
9:35 AM 32.7 °F 25.7 °F 7.9 °F 35% 29.87 in 10.0 mi NNW 8.1 mph - N/A   Clear
9:55 AM 33.8 °F 27.7 °F 6.8 °F 32% 29.87 in 10.0 mi NW 6.9 mph - N/A   Clear
10:15 AM 33.8 °F 29.6 °F 7.7 °F 34% 29.87 in 10.0 mi WSW 4.6 mph - N/A   Clear
10:35 AM 34.7 °F 28.8 °F 8.4 °F 33% 29.87 in 10.0 mi WSW 6.9 mph - N/A   Clear
10:55 AM 34.9 °F 29.0 °F 7.9 °F 32% 29.88 in 10.0 mi West 6.9 mph - N/A   Clear
11:15 AM 35.6 °F 30.7 °F 7.9 °F 32% 29.88 in 10.0 mi WNW 5.8 mph - N/A   Clear
11:35 AM 36.9 °F 30.7 °F 9.7 °F 33% 29.87 in 10.0 mi NNW 8.1 mph - N/A   Clear
11:55 AM 37.4 °F 33.8 °F 7.3 °F 29% 29.87 in 10.0 mi WSW 4.6 mph - N/A   Clear
12:15 PM 37.6 °F 30.5 °F 8.4 °F 30% 29.87 in 10.0 mi NW 10.4 mph - N/A   Clear
12:35 PM 39.4 °F 33.8 °F 10.4 °F 30% 29.87 in 10.0 mi West 8.1 mph - N/A   Clear
12:55 PM 39.6 °F 33.5 °F 9.1 °F 29% 29.87 in 10.0 mi WNW 9.2 mph - N/A   Clear
1:15 PM 39.4 °F 35.2 °F 8.2 °F 28% 29.87 in 10.0 mi SW 5.8 mph - N/A   Scattered Clouds
1:35 PM 40.1 °F 36.9 °F 8.4 °F 27% 29.87 in 10.0 mi SSW 4.6 mph - N/A   Scattered Clouds
1:55 PM 40.6 °F - 7.9 °F 26% 29.86 in 10.0 mi Calm Calm - N/A   Clear
2:15 PM 40.8 °F 35.0 °F 8.1 °F 26% 29.85 in 10.0 mi WNW 9.2 mph - N/A   Clear
2:35 PM 41.7 °F 35.2 °F 8.6 °F 26% 29.84 in 10.0 mi WNW 11.5 mph 19.6 mph N/A   Clear
3:15 PM 42.4 °F 36.5 °F 9.7 °F 26% 29.84 in 10.0 mi WNW 10.4 mph 18.4 mph N/A   Clear
3:35 PM 43.2 °F 35.3 °F 9.7 °F 26% 29.84 in 10.0 mi West 17.3 mph 24.2 mph N/A   Clear
3:55 PM 43.2 °F 36.6 °F 10.0 °F 26% 29.84 in 10.0 mi WSW 12.7 mph 19.6 mph N/A   Clear
4:15 PM 43.3 °F 36.8 °F 10.6 °F 26% 29.84 in 10.0 mi West 12.7 mph 21.9 mph N/A   Clear
4:35 PM 43.7 °F 36.6 °F 10.0 °F 25% 29.85 in 10.0 mi West 15.0 mph 23.0 mph N/A   Clear
4:55 PM 43.9 °F 36.8 °F 11.1 °F 26% 29.85 in 10.0 mi WNW 15.0 mph 20.7 mph N/A   Clear
5:15 PM 44.1 °F 36.5 °F 10.4 °F 25% 29.85 in 10.0 mi West 17.3 mph - N/A   Clear
5:35 PM 43.9 °F 37.2 °F 10.8 °F 26% 29.85 in 10.0 mi WNW 13.8 mph 17.3 mph N/A   Clear
5:55 PM 43.7 °F 39.1 °F 11.3 °F 27% 29.85 in 10.0 mi North 8.1 mph 19.6 mph N/A   Clear
6:15 PM 42.8 °F 37.5 °F 11.3 °F 28% 29.86 in 10.0 mi NNW 9.2 mph - N/A   Clear
6:35 PM 42.3 °F 36.8 °F 11.3 °F 28% 29.86 in 10.0 mi North 9.2 mph - N/A   Clear
6:55 PM 41.4 °F 35.2 °F 11.1 °F 29% 29.87 in 10.0 mi North 10.4 mph - N/A   Clear
7:15 PM 40.6 °F 35.4 °F 10.6 °F 29% 29.88 in 10.0 mi North 8.1 mph - N/A   Clear
7:35 PM 39.2 °F 33.0 °F 10.6 °F 31% 29.88 in 10.0 mi North 9.2 mph - N/A   Clear
7:55 PM 38.1 °F 32.3 °F 11.3 °F 33% 29.89 in 10.0 mi NNW 8.1 mph - N/A   Clear
8:15 PM 37.4 °F 33.8 °F 10.9 °F 34% 29.90 in 10.0 mi North 4.6 mph - N/A   Clear
8:55 PM 35.8 °F 30.9 °F 10.6 °F 35% 29.91 in 10.0 mi NNW 5.8 mph - N/A   Clear
9:15 PM 34.5 °F 30.4 °F 12.4 °F 40% 29.92 in 10.0 mi NNW 4.6 mph - N/A   Clear
9:35 PM 34.7 °F - 10.6 °F 37% 29.92 in 10.0 mi Calm Calm - N/A   Clear
10:15 PM 32.2 °F 28.9 °F 14.2 °F 48% 29.93 in 10.0 mi North 3.5 mph - N/A   Clear
10:35 PM 32.5 °F - 13.1 °F 45% 29.94 in 10.0 mi Calm Calm - N/A   Clear
10:55 PM 31.5 °F 26.8 °F 15.3 °F 51% 29.95 in 10.0 mi NW 4.6 mph - N/A   Clear
11:15 PM 32.4 °F - 11.5 °F 42% 29.96 in 10.0 mi Calm Calm - N/A   Clear
11:35 PM 31.6 °F 28.3 °F 14.0 °F 48% 29.96 in 10.0 mi North 3.5 mph - N/A   Clear
11:55 PM 30.6 °F 25.8 °F 12.4 °F 47% 29.96 in 10.0 mi NNE 4.6 mph - N/A   Clear